This demonstration page uses our WeatherBlox Daily Observations layout. Learn more.

Left ArrowRight Arrow

Hourly Observations for April 19, 2020

Temp ( °F °C ) Dew Point ( °F °C ) Humidity (%) Winds ( mph kmh ) Pressure ( in mb ) Visibility ( mi km ) Precip ( " mm )
12:51 am 00:51 Clear 57 13.9 33 0.6 41 41 NW 10 17 29.87 1012 10 16.0934 0 0
1:51 am 01:51 Clear 55 12.8 33 0.6 44 44 NW 9 15 29.86 1011 10 16.0934 0 0
2:51 am 02:51 Clear 51 10.6 32 0 48 48 NNW 8 13 29.87 1011 10 16.0934 0 0
3:51 am 03:51 Clear 49 9.4 31 -0.6 50 50 N 7 11 29.88 1012 10 16.0934 0 0
4:51 am 04:51 Clear 45 7.2 31 -0.6 58 58 E 5 7 29.9 1013 10 16.0934 0 0
5:51 am 05:51 Sunny 43 6.1 30 -1.1 60 60 SE 5 7 29.92 1013 10 16.0934 0 0
6:51 am 06:51 Sunny 51 10.6 32 0 48 48 SSE 3 6 29.94 1014 10 16.0934 0 0
7:51 am 07:51 Sunny 56 13.3 34 1.1 44 44 S 5 7 29.96 1015 10 16.0934 0 0
8:51 am 08:51 Sunny 61 16.1 34 1.1 36 36 Calm 29.94 1014 10 16.0934 0 0
9:51 am 09:51 Sunny 68 20 33 0.6 27 27 W 6 9 29.93 1014 10 16.0934 0 0
10:51 am 10:51 Sunny 71 21.7 32 0 24 24 VRB 3 6 29.91 1013 10 16.0934 0 0
11:51 am 11:51 Sunny 72 22.2 29 -1.7 20 20 SW 8 13 29.89 1012 10 16.0934 0 0
12:51 pm 12:51 Sunny 73 22.8 31 -0.6 21 21 WSW 8 13 29.87 1011 10 16.0934 0 0
1:51 pm 13:51 Sunny 78 25.6 31 -0.6 18 18 NW 9 15 29.84 1011 10 16.0934 0 0
2:51 pm 14:51 Sunny 78 25.6 30 -1.1 17 17 VRB 5 7 29.82 1010 10 16.0934 0 0
3:51 pm 15:51 Sunny 80 26.7 28 -2.2 15 15 NW 14 22 29.8 1009 10 16.0934 0 0
4:51 pm 16:51 Sunny 79 26.1 27 -2.8 15 15 WNW 21 33 29.79 1009 10 16.0934 0 0
5:51 pm 17:51 Sunny 76 24.4 29 -1.7 18 18 NW 20 31 29.79 1009 10 16.0934 0 0
6:51 pm 18:51 Sunny 73 22.8 29 -1.7 19 19 NW 12 19 29.8 1009 10 16.0934 0 0
7:51 pm 19:51 Clear 69 20.6 26 -3.3 20 20 NW 12 19 29.81 1010 10 16.0934 0 0
8:51 pm 20:51 Clear 68 20 27 -2.8 21 21 NW 13 20 29.84 1010 10 16.0934 0 0
9:51 pm 21:51 Clear 66 18.9 28 -2.2 24 24 NNW 9 15 29.84 1011 10 16.0934 0 0
10:51 pm 22:51 Clear 64 17.8 27 -2.8 25 25 WNW 10 17 29.84 1010 10 16.0934 0 0
11:51 pm 23:51 Clear 57 13.9 27 -2.8 32 32 E 3 6 29.85 1011 10 16.0934 0 0

Powered by AerisWeather